Regional Weather Roundup
Issued by NWS Jackson, KY

Home | Current Version | Previous Version | Text Only | Print | Product List | Glossary Off
Versions: 1 2 3 4 5 6 7 8 9 10 11 12 13 14 15 16 17 18 19 20 21 22 23 24 25 26 27 28 29 30 31 32 33 34 35 36 37 38 39 40 41 42 43 44 45 46 47 48 49 50

000
ASUS43 KJKL 221010
RWRJKL

EAST KENTUCKY HOURLY WEATHER ROUNDUP
NATIONAL WEATHER SERVICE JACKSON KY
600 AM EDT SAT JUL 22 2017

NOTE: "FAIR" INDICATES FEW OR NO CLOUDS BELOW 12,000 FEET WITH
NO SIGNIFICANT WEATHER AND/OR OBSTRUCTIONS TO VISIBILITY.

* THESE REPORTS ARE NOT UNDER NWS QUALITY CONTROL AND MAY NOT
  REPORT WEATHER SUCH AS PRECIPITATION AND FOG.

KYZ079-080-083-085-087-088-110-112-115-119-120-221100
...EASTERN KENTUCKY...

CITY           SKY/WX    TMP DP  RH WIND       PRES   REMARKS
JACKSON        CLEAR     75  71  87 CALM      29.99R
LONDON         CLEAR     73  70  90 CALM      30.00R
SOMERSET*      CLEAR     70  70 100 CALM      29.99S
MONTICELLO*    CLEAR     71  70  96 NE7       30.00R FOG
WILLIAMSBURG*  SUNNY     72  72 100 CALM      30.01R
MIDDLESBORO*   CLEAR     70  70 100 CALM      30.03R
HARLAN APT*    CLOUDY    72  70  94 CALM      30.04R VSB 1/2
PIKE CO APT*     N/A     74  74 100 S3        30.00S
MOREHEAD APT*  SUNNY     79  72  78 SW8       29.96F
ASHLAND*         N/A    N/A N/A N/A MISG        N/A
$$

KYZ035-036-041-042-044-050-067-078-099-221100
...CENTRAL KENTUCKY...

CITY           SKY/WX    TMP DP  RH WIND       PRES   REMARKS
MT STERLING*   CLEAR     73  72  94 SW5       29.97S
FLEMING/MASON* CLEAR     74  73  97 SW5       29.95S
DANVILLE*      CLEAR     73  72  94 S5        29.98S
LEXINGTON      CLEAR     77  71  82 S7        29.95S
FRANKFORT      PTCLDY    78  72  81 SW5       29.93S
LOUISVILLE     CLEAR     82  75  79 SW7       29.91S
LEBANON*         N/A     77  73  88 S7        29.96S
GLASGOW*       CLEAR     75  75 100 CALM      29.96S FOG
BOWLING GREEN  CLEAR     80  77  90 SW5       29.95S
$$

KYZ091>093-OHZ055-061-077-WVZ005-015-034-035-042-221100
...SOUTHERN OHIO/WEST VIRGINIA...

CITY           SKY/WX    TMP DP  RH WIND       PRES   REMARKS
COVINGTON      CLOUDY    78  76  93 S9        29.90F
COLUMBUS       CLOUDY    74  74 100 SE5       29.89F
DAYTON         TSTM      70  68  93 NW9G30    29.94R FOG
WILMINGTON     CLOUDY    74  74 100 S8        29.89F
HUNTINGTON     CLEAR     74  72  93 CALM      29.93F
CHARLESTON     MOCLDY    71  69  93 CALM      29.95S
PINEVILLE*     CLEAR     68  67  96 MISG      30.06S
BECKLEY        CLEAR     67  64  90 CALM      30.05S
BLUEFIELD      CLEAR     70  66  87 W7        30.09S
LOGAN CO APT*    N/A     72  72 100 CALM      30.00S
$$

VAZ002-007-008-TNZ017-027-036-066-071-221100
...SOUTHWEST VIRGINIA/EAST TENNESSEE...

CITY           SKY/WX    TMP DP  RH WIND       PRES   REMARKS
WISE*          CLEAR     72  72 100 SW5       30.10S
JONESVILLE*      N/A     70  68  94 CALM      30.05R FOG
ABINGDON*      CLEAR     71  69  96 CALM      30.06S
BRISTOL        CLEAR     69  68  96 CALM      30.03R
MORRISTOWN*    MOSUNNY   73  72  94 CALM      30.01R
SEVIERVILLE*   SUNNY     72  66  83 CALM      30.00S
KNOXVILLE      PTCLDY    74  70  87 CALM      29.99R
LAFOLLETTE*      N/A     72  72 100 CALM      30.05R FOG
OAK RIDGE      CLEAR     75  72  90 CALM      30.01R
CROSSVILLE     CLEAR     70  68  93 CALM      30.06R
NASHVILLE      CLEAR     76  74  93 S5        29.97R
$$

...KEY TO REMARKS...
VSB - VISIBILITY IN MILES
WCI - WIND CHILL INDEX
HX  - HEAT INDEX

$$



USA.gov is the U.S. government's official web portal to all federal, state and local government web resources and services.